Location: Holyhead Bay
(53.3667°N, 4.6667°W)
Time: 06:48:24
(UTC+00:00)

ADEOS Rocket - Pass Details

Date: 24 April 2021
Orbit: 859 x 1306 km, 98.7° (Epoch: 12 May)

Event Time Altitude Azimuth Distance (km) Brightness Sun altitude
Rises 01:39:21 0° 134° (SE) 3,849 5.9 -21.4°
Reaches altitude 10° 01:41:53 10° 129° (SE) 2,958 5.4 -21.3°
Maximum altitude 01:48:15 45° 59° (ENE) 1,576 4.4 -20.9°
Drops below altitude 10° 01:55:13 10° 351° (N) 3,243 6.5 -20.5°
Sets 01:58:06 0° 346° (NNW) 4,253 7.1 -20.3°
